Simultaneous Nadir Overpasses (SNOs) Predictions

Prediction of SNOs between GOES-16 and AQUA Satellite Orbit:

Table of predicted SNOs for the next 14.0 days since TLE Epoch: 11/23/2024
Index Date Time (GOES-16) GOES-16 Lat,Lon AQUA Lat,Lon Distance(km) Time Diff (sec)
1 11/24/2024 07:17:39 -0.00, -75.21 -0.26, -74.00 137.44 80
2 11/24/2024 19:37:25 0.01, -75.22 -0.74, -78.78 404.58 80
3 11/26/2024 19:21:32 0.00, -75.25 0.20, -74.24 114.19 80
4 11/27/2024 07:41:09 -0.01, -75.24 0.80, -78.98 425.45 80
5 11/29/2024 07:19:55 -0.00, -75.27 -0.18, -74.44 94.37 80
6 11/29/2024 19:39:40 0.00, -75.28 -0.81, -79.22 447.25 80
7 12/01/2024 19:23:44 -0.00, -75.31 0.16, -74.67 73.78 80
8 12/02/2024 07:43:20 0.00, -75.32 0.86, -79.41 465.08 80
9 12/04/2024 07:22:02 0.00, -75.35 -0.10, -74.85 56.61 80
10 12/04/2024 19:41:45 -0.00, -75.36 -0.89, -79.62 484.71 80
11 12/06/2024 19:25:45 0.00, -75.39 0.06, -75.05 38.57 80
